sat.trackr.live / text

‹ back to catalog

STARLINK-5778

NORAD 57149 · 2023-090BA

PAYLOAD ACTIVE UNKNOWN

§ Identity

Operator
Country
US
Launch date
2023-06-23
Launch site
AFETR
Launch vehicle
Mass (kg)
RCS (m²)

Purposes: comms

External: N2YO · Heavens-Above · Gunter

§ Orbital elements

Epoch: 2026-05-25T04:00:03.998880Z

Period
94.32 min
Inclination
43.0004°
Eccentricity
0.0001792
Mean motion
15.26685054 rev/d
Perigee alt
484.5 km
Apogee alt
487.0 km
Semi-major
6,863.9 km
B*
1.1289e-3
RAAN
176.6383°
Arg perigee
265.1314°
Mean anomaly
228.5095°
Rev number
578

§ Raw data

STARLINK-57781 57149U 23090BA  26145.16671295  .00030096  00000+0  11289-2 0  99952 57149  43.0004 176.6383 0001792 265.1314 228.5095 15.26685054  5787

JSON: /api/v1/satellites/57149 · /tle

For live sub-satellite position, see the globe view (requires WebGL).

§ Visibility from observer

Set your observer location to see the next 7 days of passes ≥ 10°. The values pass through the URL so the page stays shareable.

No JS? Fill the form by hand. The geolocation button needs JavaScript.